Regional Weather Roundup
Issued by NWS

Home | Current Version | Previous Version | Text Only | Print | Product List | Glossary Off
Versions: 1 2 3 4 5 6 7 8 9 10 11 12 13 14 15 16 17 18 19 20 21 22 23 24 25 26 27

000
ASUS45 KPSR 270810
RWRAZ

ARIZONA HOURLY REGIONAL WEATHER ROUNDUP
NATIONAL WEATHER SERVICE PHOENIX AZ
100 AM MST WED JUL 27 2016

NOTE: FAIR INDICATES FEW OR NO CLOUDS BELOW 12,000 FEET WITH NO
SIGNIFICANT WEATHER AND/OR OBSTRUCTIONS TO VISIBILITY.

AZZ001>003-036-270900-
NORTHWEST ARIZONA

CITY           SKY/WX    TMP DP  RH WIND       PRES   REMARKS
BULLHEAD CITY  CLEAR    100  57  23 SW6       29.72S
KINGMAN        PTCLDY    89  52  28 SW10      29.98F
$$

AZZ004>008-015-016-018-270900-
NORTH CENTRAL ARIZONA

CITY           SKY/WX    TMP DP  RH WIND       PRES   REMARKS
GRAND CANYON   CLEAR     56  44  64 CALM      30.29R HAZE
WILLIAMS       CLEAR     63  54  72 S9        30.36S
PRESCOTT       PTCLDY    74  56  53 S8        30.13F
FLAGSTAFF      PTCLDY    59  53  80 CALM      30.30F
PAYSON         CLOUDY    75  52  43 CALM      30.16F
PAGE           CLEAR     83  42  23 S5        30.05S
$$

AZZ009>014-017-270900-
NORTHEAST ARIZONA

CITY           SKY/WX    TMP DP  RH WIND       PRES   REMARKS
WINSLOW        MOCLDY    75  51  43 SW7       30.11F
SAINT JOHNS    MOCLDY    69  55  60 CALM      30.18F
WINDOW ROCK    PTCLDY    68  49  50 NE5       30.29F
SHOW LOW       MOCLDY    66  50  55 S7        30.25F
$$

AZZ023-270900-
GREATER PHOENIX AREA

CITY           SKY/WX    TMP DP  RH WIND       PRES   REMARKS
PHOENIX        PTCLDY    94  64  37 S17       29.78R
BUCKEYE        PTCLDY    93  61  33 S8        29.79S
LUKE AFB       PTCLDY    98  59  27 SW12      29.76R
DEER VALLEY    PTCLDY    94  62  34 SE14      29.80R
SCOTTSDALE     PTCLDY    92  64  39 SE8       29.83R
MESA-GATEWAY   PTCLDY    90  63  40 E6        29.84R
$$

AZZ027-028-270900-
SOUTHWEST MARICOPA COUNTY AND PINAL COUNTY

CITY           SKY/WX    TMP DP  RH WIND       PRES   REMARKS
CASA GRANDE    PTCLDY    91  63  38 S8        29.86R
GILA BEND      FAIR      96  61  30 S10       29.77S
$$

AZZ503-504-507>509-270900-
SOUTHEAST ARIZONA

CITY           SKY/WX    TMP DP  RH WIND       PRES   REMARKS
TUCSON         CLOUDY    80  67  64 SE12      29.97F
DAVIS-MONTHAN  MOCLDY    77  68  73 E6        29.96F
NOGALES        CLOUDY    72  67  84 NE3       30.05F
SIERRA VISTA   CLOUDY    77  55  45 W8        30.12F
DOUGLAS        CLOUDY    75  61  61 SE10      30.09R
SAFFORD        MOCLDY    86  59  39 NW6       29.95F
$$

AZZ020-021-025-026-031-270900-
SOUTHWEST ARIZONA

CITY           SKY/WX    TMP DP  RH WIND       PRES   REMARKS
YUMA           CLEAR     90  66  45 S12       29.74S
$$

CAZ031-033-041-043-047-048-061-270900-
SOUTHERN CALIFORNIA

CITY           SKY/WX    TMP DP  RH WIND       PRES   REMARKS
DOWNTOWN L.A.  CLEAR     70  64  81 CALM      29.87F
L.A. AIRPORT   PTCLDY    70  61  73 W7        29.88F
SAN DIEGO      PTCLDY    70  65  84 NW3       29.89F
BURBANK        CLEAR     74  62  66 E3        29.89S
ONTARIO        CLEAR     77  53  43 CALM      29.89F
RIVERSIDE      CLEAR     79  51  37 CALM      29.89F
PALM SPRINGS   CLEAR     97  51  21 W3        29.76F
EL CENTRO NAS  CLEAR     94  53  25 SW7       29.72F
IMPERIAL       CLEAR     95  59  30 CALM      29.70S
BLYTHE         PTCLDY    96  65  35 S14       29.73S
NEEDLES        MOCLDY   104  54  19 SW8       29.73  HX 102
$$

NVZ020-UTZ003-270900-
SOUTHERN NEVADA-UTAH

CITY           SKY/WX    TMP DP  RH WIND       PRES   REMARKS
LAS VEGAS      CLEAR     97  40  14 S6        29.79R
SALT LAKE CITY CLEAR     75  34  22 SE7       30.04S
$$

NMZ009-TXZ055-270900-
NEW MEXICO-WEST TEXAS

CITY           SKY/WX    TMP DP  RH WIND       PRES   REMARKS
ALBUQUERQUE    CLOUDY    74  56  53 SE5       30.20F
EL PASO        MOCLDY    81  59  47 VRB5      30.07R
$$


........................KEY........................
SKY/WX - SKY CONDITION/WEATHER
TMP    - TEMPERATURE IN FAHRENHEIT
DP     - DEW POINT IN FAHRENHEIT
RH     - RELATIVE HUMIDITY IN PERCENT
WIND   - DIRECTION AND SPEED IN MILES PER HOUR (MPH)
VRB    - VARIABLE WIND DIRECTION
PRES   - MEAN SEA LEVEL PRESSURE IN INCHES OF MERCURY
         F - FALLING PRESSURE   R - RISING PRESSURE
         S - STEADY PRESSURE
VSB    - VISIBILITY IN MILES
HX     - HEAT INDEX IN FAHRENHEIT
WCI    - WIND CHILL INDEX IN FAHRENHEIT
TC     - TEMPERATURE IN CELSIUS WHICH IS ALSO KNOWN AS
         TEMPERATURE IN CENTIGRADE
AFB    - AIR FORCE BASE
         LUKE AFB IS LUKE AIR FORCE BASE
         DAVIS-MONTHAN IS DAVIS-MONTHAN AIR FORCE BASE
NAS    - NAVAL AIR STATION
         EL CENTRO NAS IS EL CENTRO NAVAL AIR STATION
N/A    - NOT AVAILABLE





USA.gov is the U.S. government's official web portal to all federal, state and local government web resources and services.